Wind_Speed
28 28 29 29 28 28 29 29 29 29 28 28 27 27 26 25 24 24 24 24 24 23 22 21 21 21 20 20 20 20 20 20 20 20 20 21 21 20 20 20 20 19 19
29 30 30 29 29 29 29 29 29 29 29 29 29 28 27 26 26 25 25 25 25 23 23 22 22 22 22 21 21 21 21 21 22 21 21 21 21 20 20 20 19 19 19
30 30 30 30 31 31 31 30 30 30 30 30 29 28 28 27 27 27 26 26 25 24 24 23 23 24 23 23 22 22 22 22 23 22 21 21 21 21 20 19 19 19 19
29 29 30 30 31 31 32 31 31 31 30 30 29 28 28 28 28 28 27 26 26 25 25 25 25 25 24 23 22 22 22 22 22 22 22 22 21 21 21 20 20 19 20
29 28 28 29 29 30 30 31 31 30 30 30 29 28 27 27 27 27 27 26 25 26 26 26 25 25 24 22 22 22 23 23 22 22 22 21 21 21 21 20 20 20 20
29 28 28 28 28 28 29 28 29 30 30 30 29 28 27 27 28 28 27 26 26 26 26 26 26 25 25 24 23 23 23 22 22 21 21 21 21 21 21 21 21 20 20
28 27 28 28 29 29 29 28 28 29 28 28 28 28 28 27 26 26 27 27 26 26 26 27 27 27 26 26 25 25 23 23 23 22 21 21 21 22 22 22 22 21 21
28 27 28 28 28 29 29 29 29 29 29 30 29 28 27 27 27 27 28 28 28 28 28 28 29 29 28 28 27 27 26 25 24 24 23 22 22 22 22 22 22 22 22
28 28 28 28 28 29 30 30 30 30 30 31 30 29 28 29 28 28 29 29 29 29 29 30 29 30 29 29 29 28 27 26 26 25 24 23 23 23 23 23 22 22 22
28 28 29 29 30 30 30 30 31 31 31 30 30 29 29 29 29 30 29 29 30 30 30 30 30 30 29 29 29 28 28 27 26 26 25 24 23 23 23 23 23 22 22
28 28 29 29 29 30 30 30 31 31 30 30 30 30 31 30 30 30 30 29 29 30 29 29 29 29 29 29 28 28 27 27 26 25 25 25 24 22 23 23 22 22 22
28 28 28 28 28 29 29 29 30 31 31 31 31 31 30 30 30 30 30 30 30 29 29 29 28 28 28 28 28 27 26 26 25 25 24 24 24 23 23 23 22 22 22
28 28 28 28 29 29 29 29 29 30 30 30 30 29 29 29 29 29 30 30 30 30 29 29 28 28 28 28 27 27 26 25 25 25 25 25 24 23 23 23 22 22 21
28 28 28 29 29 29 29 29 29 29 29 29 29 29 29 29 29 29 29 29 29 29 29 29 29 28 28 28 27 27 27 25 25 25 25 25 24 24 23 23 22 22 21
28 29 29 29 29 29 28 29 29 28 29 29 29 29 29 29 29 29 29 29 29 29 29 29 28 27 27 27 27 27 27 26 25 25 25 25 24 24 24 23 22 22 22
29 29 29 29 28 28 27 27 27 28 28 28 29 29 29 29 29 29 29 28 28 28 28 28 27 27 26 27 27 27 27 27 26 26 26 25 24 24 23 23 23 22 22
27 27 27 27 27 26 26 26 26 26 26 26 27 28 28 28 28 28 27 28 28 28 27 27 26 26 26 26 27 27 27 27 27 27 26 26 25 24 24 24 23 23 22
27 26 26 25 25 25 25 25 24 24 24 24 24 25 25 26 26 26 25 26 26 27 26 26 26 26 26 26 25 25 26 25 25 26 26 25 25 24 24 24 24 23 23
27 26 25 25 25 25 24 23 22 22 23 22 22 23 24 24 24 24 23 24 24 24 24 25 25 25 24 25 25 25 25 25 25 25 25 25 24 24 24 24 24 23 23
26 26 26 25 24 24 23 23 22 22 22 22 22 22 22 23 22 22 22 22 22 22 22 23 23 24 24 24 25 25 25 25 25 25 24 24 24 24 25 25 24 24 24
27 26 25 25 24 24 23 22 22 21 21 21 21 21 21 21 21 21 22 22 22 21 21 21 21 22 22 23 24 24 24 24 24 25 25 25 25 25 25 25 25 25 25
26 26 25 24 24 24 24 23 22 21 20 20 19 19 20 20 21 21 21 21 22 21 21 21 21 21 22 22 23 23 24 24 24 25 25 25 24 24 24 24 24 25 25
25 24 23 23 23 23 23 22 22 21 21 20 19 19 19 19 20 20 20 21 21 21 21 22 22 22 23 22 22 23 24 24 25 25 25 25 25 24 24 23 24 24 24
23 23 22 22 22 22 22 21 21 20 19 19 19 18 19 19 19 19 19 20 20 20 21 21 21 22 22 22 22 22 23 24 25 25 25 25 25 24 23 23 23 23 24
22 21 21 21 21 20 20 19 19 18 18 19 18 18 18 18 18 18 19 19 19 20 20 20 21 22 22 22 22 22 22 23 23 23 23 23 23 23 23 22 21 21 22
20 20 19 19 19 19 18 17 17 17 17 17 17 17 17 17 17 18 18 18 18 19 19 20 21 21 21 20 20 21 21 22 22 22 22 22 22 22 23 22 22 21 21
Wind_Direction
277 276 277 277 276 276 277 277 279 281 283 284 284 283 283 282 280 278 276 273 273 272 273 274 274 274 274 273 275 276 278 281 283 282 282 282 282 280 279 280 280 281 282
278 278 277 275 276 276 276 277 278 279 280 281 281 281 281 279 276 274 273 272 271 271 270 272 272 272 274 274 275 275 277 281 282 281 280 279 278 280 282 281 280 280 279
279 277 276 274 274 274 274 276 277 278 280 281 281 280 278 277 274 272 271 269 269 268 268 270 271 273 274 275 275 275 277 279 280 281 279 279 279 279 282 284 281 279 279
278 277 276 273 273 273 273 274 276 277 277 278 278 278 276 275 274 272 269 268 267 267 267 268 270 272 274 275 275 276 277 278 280 280 279 279 278 279 281 281 281 282 281
279 278 276 273 273 273 274 275 274 275 276 276 275 275 276 276 274 271 268 267 266 266 267 267 268 269 269 272 273 275 277 279 281 280 279 279 279 279 279 279 279 281 281
280 278 277 275 274 274 275 275 275 275 275 273 272 274 276 277 274 271 268 266 267 267 267 268 268 267 268 270 271 273 275 277 279 279 280 279 280 279 279 279 280 280 282
282 280 278 277 276 276 275 276 278 278 278 276 273 273 275 276 273 270 267 266 266 268 267 267 267 267 267 269 269 271 274 275 275 277 280 280 280 279 279 280 280 280 282
284 281 279 278 276 274 275 276 278 279 279 277 275 273 273 273 272 270 269 268 266 267 268 268 268 266 266 265 266 270 271 272 274 275 277 278 278 278 279 280 280 281 282
287 284 280 278 277 276 277 277 278 279 279 277 275 273 272 272 272 272 270 269 267 267 267 267 267 266 265 265 265 266 267 268 270 272 276 277 277 278 278 280 281 282 282
288 285 283 281 279 277 276 276 277 277 277 275 274 274 274 273 272 272 272 271 269 268 268 267 266 266 266 265 264 264 264 266 267 270 272 275 278 278 279 279 280 281 280
288 287 285 283 282 280 278 277 276 275 274 274 274 274 274 273 273 272 271 270 269 267 267 265 265 264 265 264 263 262 263 264 265 268 271 273 276 279 280 281 281 280 279
287 287 287 285 283 282 281 279 275 273 274 275 275 274 274 273 272 271 270 269 268 267 265 265 263 262 263 263 261 261 261 262 264 267 269 273 276 278 280 281 280 280 279
287 287 287 287 285 283 281 279 276 275 275 275 274 273 273 272 272 271 269 268 267 267 265 263 264 262 261 261 259 259 259 261 263 266 268 271 274 276 278 280 280 280 278
289 288 288 288 287 284 281 280 279 277 275 274 273 272 272 273 272 270 269 268 267 265 264 264 264 263 261 259 258 258 258 260 263 265 267 270 273 275 276 278 278 277 276
291 290 290 289 288 287 285 282 279 276 276 276 274 273 273 273 272 270 268 268 266 263 263 263 264 263 261 258 255 256 258 260 262 265 268 270 272 273 274 276 275 274 274
293 290 290 289 288 287 286 284 283 280 279 276 273 272 273 273 273 272 269 267 266 265 263 262 261 260 258 258 256 256 257 258 260 264 268 270 270 270 271 272 273 273 273
295 293 291 289 288 288 287 285 284 283 282 279 275 273 272 272 273 272 269 267 266 265 263 261 260 258 256 258 258 257 257 258 261 264 267 269 269 270 270 271 272 273 274
296 294 293 291 289 288 287 287 287 285 283 281 277 275 274 273 272 272 270 268 266 263 261 258 258 257 256 257 257 257 257 259 262 265 267 268 268 269 270 270 271 272 272
294 293 292 291 288 288 288 288 289 286 284 282 279 276 275 273 272 270 269 268 266 263 261 258 257 256 257 257 256 258 259 260 262 264 265 267 268 269 270 269 270 269 270
294 293 292 289 288 288 287 288 288 287 286 283 281 279 278 275 271 269 268 267 265 264 262 260 257 258 259 258 258 259 261 261 263 264 266 267 268 269 270 269 268 269 269
294 292 290 288 288 289 288 288 287 287 287 285 283 282 280 277 273 270 268 266 263 262 260 259 259 260 260 261 261 262 262 262 264 265 268 268 266 268 269 269 267 268 270
294 292 290 289 287 288 287 286 286 288 288 287 285 284 282 278 275 272 268 265 262 259 257 257 258 259 260 261 261 261 261 262 264 266 267 268 269 270 272 271 269 269 268
294 293 291 290 289 289 288 286 285 285 285 285 284 283 283 280 278 274 270 267 263 259 256 256 258 260 261 261 261 261 261 261 263 265 267 268 270 272 274 273 271 269 269
294 293 291 289 290 290 289 288 286 285 283 284 286 285 284 281 279 275 272 269 264 260 257 257 260 261 260 259 259 261 261 261 263 265 267 267 269 271 272 272 271 269 269
294 293 291 290 289 289 288 287 286 284 282 283 284 285 286 284 281 276 271 269 265 262 259 260 261 260 259 259 260 262 262 261 263 264 265 266 268 271 272 271 268 267 268
293 292 290 290 289 288 285 284 285 282 280 281 282 284 284 283 280 278 275 270 266 263 260 259 259 258 259 259 261 263 263 263 262 262 262 264 266 268 269 269 266 265 266
Height
5820 5821 5820 5820 5820 5819 5819 5819 5818 5817 5817 5816 5816 5816 5815 5815 5814 5814 5815 5815 5815 5815 5816 5816 5816 5816 5816 5816 5816 5816 5816 5815 5815 5815 5814 5813 5813 5812 5811 5811 5811 5811 5810
5813 5813 5813 5813 5812 5812 5812 5811 5811 5811 5810 5810 5809 5808 5808 5808 5808 5808 5808 5808 5808 5809 5810 5810 5811 5811 5811 5811 5811 5810 5810 5809 5809 5809 5809 5808 5808 5807 5806 5806 5806 5805 5805
5805 5805 5804 5804 5804 5804 5804 5804 5803 5803 5802 5802 5801 5801 5801 5801 5801 5801 5801 5801 5802 5803 5803 5804 5804 5804 5804 5804 5804 5804 5804 5803 5803 5803 5803 5802 5802 5802 5801 5801 5800 5800 5799
5797 5796 5796 5796 5796 5796 5796 5796 5795 5795 5795 5794 5794 5794 5793 5793 5793 5794 5794 5794 5795 5796 5796 5797 5797 5798 5798 5798 5798 5798 5798 5797 5797 5797 5797 5796 5796 5796 5796 5795 5795 5795 5794
5789 5788 5788 5788 5788 5787 5787 5787 5787 5787 5787 5787 5786 5786 5786 5785 5786 5786 5786 5786 5787 5788 5789 5790 5790 5791 5791 5791 5792 5792 5792 5791 5791 5790 5790 5790 5790 5790 5790 5789 5789 5789 5789
5782 5780 5780 5780 5780 5779 5779 5779 5778 5778 5778 5778 5778 5778 5778 5778 5778 5778 5778 5779 5780 5780 5782 5782 5783 5784 5785 5785 5785 5785 5785 5785 5785 5784 5784 5784 5784 5784 5784 5783 5783 5783 5783
5775 5773 5772 5772 5772 5772 5771 5771 5771 5770 5770 5770 5770 5770 5771 5771 5770 5771 5771 5772 5772 5773 5774 5775 5776 5777 5777 5778 5778 5778 5778 5779 5779 5778 5778 5778 5778 5778 5777 5777 5777 5776 5776
5767 5766 5765 5764 5764 5764 5763 5763 5762 5762 5762 5762 5762 5762 5763 5763 5763 5763 5763 5764 5765 5766 5766 5767 5768 5769 5769 5770 5771 5771 5772 5772 5772 5772 5772 5772 5771 5771 5771 5771 5770 5770 5770
5760 5758 5757 5757 5756 5755 5755 5755 5754 5754 5753 5753 5753 5753 5754 5755 5755 5755 5755 5756 5757 5757 5758 5759 5759 5760 5761 5762 5763 5763 5764 5764 5764 5765 5765 5765 5764 5764 5764 5764 5764 5763 5763
5752 5751 5750 5749 5748 5747 5746 5746 5746 5745 5745 5745 5744 5745 5745 5746 5747 5747 5747 5747 5748 5749 5750 5750 5751 5752 5753 5753 5754 5755 5756 5756 5757 5758 5758 5758 5758 5757 5757 5757 5756 5756 5755
5744 5743 5741 5740 5739 5738 5738 5737 5737 5736 5736 5736 5736 5737 5737 5737 5738 5738 5738 5739 5739 5740 5741 5741 5742 5743 5744 5745 5746 5747 5747 5748 5749 5750 5750 5751 5751 5750 5750 5749 5749 5748 5748
5737 5735 5734 5732 5731 5730 5729 5728 5728 5728 5728 5727 5727 5728 5728 5728 5728 5729 5729 5729 5730 5731 5732 5733 5734 5734 5736 5737 5738 5739 5740 5741 5742 5742 5743 5744 5744 5744 5743 5742 5742 5741 5741
5729 5728 5726 5724 5723 5722 5721 5720 5719 5719 5718 5718 5718 5718 5719 5719 5719 5719 5719 5720 5721 5722 5723 5724 5725 5725 5727 5728 5729 5731 5732 5733 5734 5735 5736 5737 5736 5736 5736 5735 5735 5734 5734
5721 5720 5718 5716 5715 5714 5712 5712 5711 5711 5710 5710 5709 5709 5709 5710 5710 5710 5710 5711 5712 5713 5714 5715 5716 5717 5718 5720 5721 5723 5724 5726 5727 5728 5729 5729 5729 5729 5729 5728 5728 5727 5727
5714 5712 5710 5708 5707 5706 5704 5703 5702 5702 5702 5701 5701 5701 5701 5701 5701 5701 5701 5702 5702 5704 5705 5706 5707 5709 5710 5711 5713 5715 5716 5718 5719 5720 5721 5721 5721 5721 5721 5721 5720 5720 5720
5706 5704 5702 5700 5699 5698 5696 5695 5694 5694 5693 5692 5692 5692 5692 5692 5691 5691 5692 5692 5693 5694 5696 5697 5699 5700 5702 5703 5705 5706 5708 5710 5711 5712 5713 5713 5714 5714 5713 5713 5713 5713 5713
5699 5696 5694 5693 5691 5690 5689 5687 5686 5686 5684 5684 5683 5683 5683 5683 5683 5683 5683 5684 5685 5686 5687 5688 5690 5692 5694 5695 5697 5698 5700 5702 5703 5704 5705 5705 5706 5706 5705 5705 5705 5705 5705
5691 5689 5687 5685 5684 5682 5681 5680 5679 5678 5677 5676 5675 5675 5675 5675 5675 5675 5675 5675 5676 5677 5679 5680 5682 5684 5686 5687 5689 5690 5692 5694 5695 5696 5697 5697 5698 5698 5698 5698 5698 5698 5698
5684 5682 5680 5678 5676 5675 5674 5673 5671 5670 5669 5669 5668 5668 5667 5667 5667 5667 5667 5668 5669 5670 5671 5673 5674 5676 5678 5680 5682 5683 5685 5686 5687 5688 5689 5689 5689 5690 5690 5690 5690 5690 5690
5677 5675 5673 5671 5670 5668 5667 5666 5665 5663 5662 5662 5661 5661 5660 5660 5660 5660 5660 5661 5662 5663 5664 5666 5667 5669 5671 5672 5674 5675 5677 5678 5679 5680 5680 5681 5681 5682 5682 5682 5682 5682 5682
5670 5668 5666 5664 5663 5661 5660 5659 5658 5657 5656 5655 5654 5654 5653 5652 5652 5653 5653 5654 5655 5656 5657 5659 5660 5662 5663 5665 5666 5668 5669 5670 5671 5672 5672 5673 5674 5674 5674 5674 5674 5673 5674
5662 5660 5658 5657 5656 5655 5653 5652 5651 5650 5649 5648 5648 5647 5646 5646 5645 5646 5646 5647 5648 5649 5651 5652 5654 5655 5656 5658 5659 5660 5661 5662 5663 5664 5665 5665 5665 5665 5666 5666 5665 5666 5666
5654 5652 5651 5650 5648 5647 5646 5645 5644 5643 5642 5642 5641 5641 5640 5639 5639 5639 5640 5640 5641 5643 5644 5645 5646 5648 5649 5650 5651 5652 5654 5655 5656 5656 5657 5657 5657 5658 5658 5658 5658 5658 5658
5647 5646 5644 5643 5642 5640 5639 5638 5637 5636 5636 5636 5635 5635 5634 5633 5633 5633 5633 5634 5634 5636 5637 5638 5639 5640 5642 5643 5644 5645 5646 5647 5647 5648 5649 5649 5650 5650 5650 5650 5650 5650 5650
5641 5639 5638 5637 5635 5634 5633 5632 5631 5631 5630 5630 5629 5629 5628 5627 5627 5627 5627 5627 5628 5629 5631 5632 5633 5634 5635 5636 5637 5637 5638 5639 5640 5640 5641 5642 5642 5642 5642 5643 5643 5643 5643
5635 5634 5632 5631 5629 5628 5627 5626 5625 5625 5625 5624 5624 5623 5623 5622 5622 5621 5621 5622 5622 5623 5624 5626 5626 5627 5628 5629 5630 5630 5631 5632 5632 5633 5634 5635 5635 5636 5636 5635 5636 5636 5636